DLH560 EDDF-LIPE

Flight info

Callsign DLH560
Flight time 1h 2m
Altitude 31000
Route ANEKI2L/18 ANEKI Y163 HERBI/N0438F330 Y163 NATOR DCT TRA/N0435F310 DCT ARGAX DCT RESIA/N0437F330 DCT ATPED DCT MOVOR DCT ADOSA/N0370F190 M738 BENUS
Aircraft A319/M-SDE3FGHIRWY/LB1

Departure

Time 2026-04-14 08:27
Airport Frankfurt Main Airport (EDDF)

Arrival

Time 2026-04-14 09:29
Airport Bologna Guglielmo Marconi Airport (LIPE)
Time Latitude Longitude Altitude Speed Heading
2026-04-14 08:11 50.04544 8.56228 356 ft 0 kts 36°
2026-04-14 08:17 50.04533 8.56216 362 ft 4 kts 34°
2026-04-14 08:18 50.04511 8.56199 360 ft 2 kts 10°
2026-04-14 08:18 50.04491 8.56200 356 ft 4 kts 315°
2026-04-14 08:18 50.04481 8.56232 358 ft 4 kts 260°
2026-04-14 08:18 50.04481 8.56236 358 ft 4 kts 250°
2026-04-14 08:19 50.04471 8.56196 357 ft 4 kts 250°
2026-04-14 08:19 50.04462 8.56157 356 ft 4 kts 250°
2026-04-14 08:19 50.04453 8.56119 359 ft 2 kts 250°
2026-04-14 08:19 50.04452 8.56115 363 ft 0 kts 250°
2026-04-14 08:21 50.04443 8.56078 356 ft 8 kts 249°
2026-04-14 08:21 50.04436 8.56047 359 ft 0 kts 249°
2026-04-14 08:21 50.04435 8.56046 358 ft 0 kts 249°
2026-04-14 08:21 50.04432 8.56034 358 ft 0 kts 249°
2026-04-14 08:22 50.04426 8.56024 361 ft 7 kts 224°
2026-04-14 08:22 50.04345 8.56054 358 ft 14 kts 159°
2026-04-14 08:22 50.04257 8.56012 354 ft 19 kts 243°
2026-04-14 08:22 50.04203 8.55785 354 ft 24 kts 250°
2026-04-14 08:23 50.04143 8.55538 352 ft 25 kts 249°
2026-04-14 08:23 50.04085 8.55291 354 ft 24 kts 250°
2026-04-14 08:23 50.04027 8.55052 353 ft 24 kts 249°
2026-04-14 08:23 50.03969 8.54811 353 ft 24 kts 250°
2026-04-14 08:24 50.03909 8.54557 354 ft 26 kts 250°
2026-04-14 08:24 50.03831 8.54306 350 ft 26 kts 234°
2026-04-14 08:24 50.03758 8.54046 347 ft 26 kts 250°
2026-04-14 08:24 50.03693 8.53776 352 ft 27 kts 249°
2026-04-14 08:25 50.03625 8.53503 341 ft 27 kts 248°
2026-04-14 08:25 50.03558 8.53225 337 ft 28 kts 250°
2026-04-14 08:25 50.03491 8.52945 334 ft 28 kts 249°
2026-04-14 08:25 50.03427 8.52700 333 ft 17 kts 250°
2026-04-14 08:26 50.03347 8.52593 335 ft 17 kts 178°
2026-04-14 08:26 50.03189 8.52595 335 ft 46 kts 179°
2026-04-14 08:26 50.02605 8.52601 335 ft 119 kts 179°
2026-04-14 08:26 50.01579 8.52613 403 ft 165 kts 182°
2026-04-14 08:27 50.00450 8.52643 1070 ft 163 kts 180°
2026-04-14 08:27 49.99303 8.52713 1709 ft 170 kts 178°
2026-04-14 08:27 49.98046 8.52798 2110 ft 191 kts 177°
2026-04-14 08:27 49.96636 8.52895 2476 ft 215 kts 177°
2026-04-14 08:28 49.95057 8.53003 2960 ft 235 kts 176°
2026-04-14 08:28 49.93401 8.53115 3827 ft 240 kts 176°
2026-04-14 08:28 49.91720 8.53227 4753 ft 243 kts 177°
2026-04-14 08:28 49.90027 8.53342 5689 ft 244 kts 178°
2026-04-14 08:29 49.88320 8.53456 6620 ft 247 kts 178°
2026-04-14 08:29 49.86600 8.53571 7496 ft 248 kts 178°
2026-04-14 08:29 49.84871 8.53689 8392 ft 249 kts 178°
2026-04-14 08:29 49.83132 8.53809 9311 ft 251 kts 179°
2026-04-14 08:30 49.81385 8.53928 10218 ft 252 kts 179°
2026-04-14 08:30 49.79627 8.54048 11036 ft 254 kts 179°
2026-04-14 08:30 49.77851 8.54115 11826 ft 257 kts 185°
2026-04-14 08:30 49.75999 8.53886 12202 ft 279 kts 187°
2026-04-14 08:31 49.73984 8.53608 12485 ft 302 kts 187°
2026-04-14 08:31 49.69513 8.52992 13292 ft 336 kts 187°
2026-04-14 08:31 49.67167 8.52678 14030 ft 340 kts 187°
2026-04-14 08:32 49.64792 8.52364 14711 ft 344 kts 186°
2026-04-14 08:32 49.62398 8.52052 15398 ft 347 kts 186°
2026-04-14 08:32 49.59980 8.51737 16092 ft 350 kts 186°
2026-04-14 08:32 49.57541 8.51415 16784 ft 353 kts 186°
2026-04-14 08:33 49.55080 8.51089 17467 ft 357 kts 186°
2026-04-14 08:33 49.52595 8.50762 18145 ft 360 kts 186°
2026-04-14 08:33 49.50086 8.50433 18769 ft 363 kts 186°
2026-04-14 08:33 49.47557 8.50105 19354 ft 366 kts 186°
2026-04-14 08:34 49.45001 8.49775 19939 ft 370 kts 186°
2026-04-14 08:34 49.42432 8.49441 20524 ft 373 kts 186°
2026-04-14 08:34 49.39833 8.49102 21102 ft 376 kts 186°
2026-04-14 08:34 49.37219 8.48758 21682 ft 379 kts 186°
2026-04-14 08:35 49.34575 8.48407 22260 ft 382 kts 186°
2026-04-14 08:35 49.31916 8.48056 22837 ft 385 kts 186°
2026-04-14 08:35 49.29235 8.47707 23389 ft 388 kts 186°
2026-04-14 08:35 49.26530 8.47360 23892 ft 392 kts 186°
2026-04-14 08:36 49.23808 8.47008 24338 ft 394 kts 186°
2026-04-14 08:36 49.21065 8.46653 24775 ft 397 kts 186°
2026-04-14 08:36 49.18303 8.46298 25199 ft 400 kts 186°
2026-04-14 08:36 49.15524 8.45942 25630 ft 402 kts 186°
2026-04-14 08:37 49.12726 8.45580 26065 ft 404 kts 186°
2026-04-14 08:37 49.09911 8.45215 26512 ft 407 kts 186°
2026-04-14 08:37 49.07084 8.44837 26973 ft 409 kts 188°
2026-04-14 08:37 49.04288 8.44035 27404 ft 410 kts 194°
2026-04-14 08:38 49.02405 8.43368 27693 ft 412 kts 194°
2026-04-14 08:38 48.99611 8.42382 28119 ft 414 kts 194°
2026-04-14 08:38 48.96795 8.41400 28542 ft 416 kts 194°
2026-04-14 08:38 48.93966 8.40420 28950 ft 418 kts 194°
2026-04-14 08:39 48.91117 8.39438 29357 ft 421 kts 194°
2026-04-14 08:39 48.88258 8.38449 29752 ft 423 kts 194°
2026-04-14 08:39 48.85381 8.37451 30136 ft 425 kts 194°
2026-04-14 08:39 48.82491 8.36449 30476 ft 428 kts 194°
2026-04-14 08:40 48.79579 8.35447 30763 ft 430 kts 194°
2026-04-14 08:40 48.76649 8.34427 31043 ft 433 kts 194°
2026-04-14 08:40 48.73712 8.33371 31158 ft 433 kts 195°
2026-04-14 08:40 48.70838 8.32314 31180 ft 417 kts 195°
2026-04-14 08:41 48.65285 8.30255 31179 ft 408 kts 195°
2026-04-14 08:41 48.59777 8.28234 31175 ft 407 kts 195°
2026-04-14 08:42 48.54271 8.26234 31169 ft 407 kts 195°
2026-04-14 08:42 48.48690 8.24838 31167 ft 409 kts 182°
2026-04-14 08:43 48.43052 8.25838 31166 ft 412 kts 172°
2026-04-14 08:43 48.37360 8.27232 31164 ft 411 kts 173°
2026-04-14 08:44 48.31706 8.28593 31147 ft 411 kts 173°
2026-04-14 08:44 48.26055 8.29951 31142 ft 411 kts 173°
2026-04-14 08:45 48.20433 8.31290 31142 ft 411 kts 173°
2026-04-14 08:45 48.14784 8.32644 31138 ft 411 kts 173°
2026-04-14 08:46 48.09138 8.34023 31135 ft 411 kts 173°
2026-04-14 08:46 48.03490 8.35408 31139 ft 413 kts 173°
2026-04-14 08:47 48.00610 8.36101 31157 ft 425 kts 173°
2026-04-14 08:47 47.97654 8.36809 31153 ft 436 kts 173°
2026-04-14 08:47 47.91536 8.38275 31144 ft 454 kts 173°
2026-04-14 08:48 47.85259 8.39788 31152 ft 459 kts 173°
2026-04-14 08:48 47.78949 8.41309 31153 ft 459 kts 173°
2026-04-14 08:49 47.72663 8.43030 31148 ft 462 kts 166°
2026-04-14 08:49 47.66815 8.47066 31155 ft 469 kts 147°
2026-04-14 08:50 47.61862 8.53392 31155 ft 471 kts 138°
2026-04-14 08:50 47.57043 8.59969 31156 ft 471 kts 139°
2026-04-14 08:51 47.52209 8.66527 31158 ft 471 kts 139°
2026-04-14 08:51 47.47375 8.73075 31160 ft 471 kts 139°
2026-04-14 08:52 47.42534 8.79629 31155 ft 471 kts 138°
2026-04-14 08:52 47.37694 8.86159 31154 ft 471 kts 138°
2026-04-14 08:53 47.32850 8.92671 31150 ft 471 kts 138°
2026-04-14 08:53 47.28002 8.99171 31147 ft 471 kts 139°
2026-04-14 08:54 47.23152 9.05660 31140 ft 471 kts 138°
2026-04-14 08:54 47.18299 9.12137 31139 ft 471 kts 138°
2026-04-14 08:55 47.13437 9.18596 31142 ft 471 kts 139°
2026-04-14 08:55 47.08576 9.25049 31135 ft 471 kts 138°
2026-04-14 08:56 47.03721 9.31486 31137 ft 470 kts 138°
2026-04-14 08:56 46.98865 9.37908 31114 ft 470 kts 138°
2026-04-14 08:57 46.93999 9.44317 31114 ft 470 kts 139°
2026-04-14 08:57 46.89137 9.50703 31122 ft 469 kts 139°
2026-04-14 08:58 46.84282 9.57073 31113 ft 469 kts 139°
2026-04-14 08:58 46.79421 9.63427 31098 ft 469 kts 139°
2026-04-14 08:59 46.74561 9.69756 31071 ft 468 kts 139°
2026-04-14 08:59 46.69711 9.76064 31058 ft 466 kts 139°
2026-04-14 09:00 46.64882 9.82343 31056 ft 464 kts 140°
2026-04-14 09:00 46.60067 9.88575 31053 ft 462 kts 140°
2026-04-14 09:01 46.55301 9.94727 31047 ft 460 kts 140°
2026-04-14 09:01 46.50512 10.00897 31042 ft 460 kts 140°
2026-04-14 09:02 46.45707 10.07014 31032 ft 459 kts 141°
2026-04-14 09:02 46.40798 10.12914 31030 ft 457 kts 142°
2026-04-14 09:03 46.35877 10.18703 31001 ft 455 kts 142°
2026-04-14 09:03 46.30990 10.24486 30989 ft 453 kts 142°
2026-04-14 09:04 46.26131 10.30282 30971 ft 452 kts 142°
2026-04-14 09:04 46.21282 10.36063 30966 ft 452 kts 142°
2026-04-14 09:05 46.16432 10.41823 30947 ft 451 kts 142°
2026-04-14 09:05 46.11588 10.47546 30955 ft 450 kts 142°
2026-04-14 09:06 46.06751 10.53244 30955 ft 449 kts 142°
2026-04-14 09:06 46.01920 10.58939 30949 ft 448 kts 142°
2026-04-14 09:07 45.97097 10.64613 30938 ft 448 kts 142°
2026-04-14 09:07 45.92266 10.70271 30938 ft 448 kts 142°
2026-04-14 09:08 45.87432 10.75924 30929 ft 448 kts 142°
2026-04-14 09:08 45.82592 10.81553 30943 ft 447 kts 142°
2026-04-14 09:09 45.77765 10.87170 30933 ft 447 kts 142°
2026-04-14 09:09 45.72940 10.92784 30936 ft 447 kts 142°
2026-04-14 09:10 45.68108 10.98378 30951 ft 447 kts 143°
2026-04-14 09:10 45.62690 11.02626 30947 ft 445 kts 160°
2026-04-14 09:11 45.56646 11.04535 30948 ft 446 kts 170°
2026-04-14 09:11 45.50520 11.06013 30952 ft 447 kts 170°
2026-04-14 09:12 45.44386 11.07498 30958 ft 447 kts 170°
2026-04-14 09:12 45.38253 11.08976 30958 ft 448 kts 170°
2026-04-14 09:13 45.32107 11.10452 30935 ft 448 kts 170°
2026-04-14 09:13 45.25956 11.11941 30529 ft 452 kts 170°
2026-04-14 09:14 45.22849 11.12690 29495 ft 453 kts 169°
2026-04-14 09:14 45.19738 11.13438 28431 ft 454 kts 169°
2026-04-14 09:14 45.16614 11.14186 27404 ft 456 kts 170°
2026-04-14 09:14 45.13464 11.14938 26413 ft 461 kts 169°
2026-04-14 09:15 45.10296 11.15695 25454 ft 464 kts 170°
2026-04-14 09:15 45.07093 11.16456 24523 ft 470 kts 170°
2026-04-14 09:15 45.03866 11.17218 23634 ft 468 kts 170°
2026-04-14 09:15 45.00670 11.17975 22616 ft 464 kts 170°
2026-04-14 09:16 44.97500 11.18726 21612 ft 460 kts 169°
2026-04-14 09:16 44.94356 11.19476 20638 ft 456 kts 169°
2026-04-14 09:16 44.91240 11.20222 19695 ft 453 kts 169°
2026-04-14 09:16 44.88140 11.20963 18779 ft 450 kts 169°
2026-04-14 09:17 44.85060 11.21694 17833 ft 447 kts 169°
2026-04-14 09:17 44.82009 11.22417 16930 ft 440 kts 169°
2026-04-14 09:17 44.79010 11.22925 16330 ft 431 kts 177°
2026-04-14 09:17 44.76035 11.22692 15774 ft 428 kts 187°
2026-04-14 09:18 44.74113 11.22115 15414 ft 426 kts 194°
2026-04-14 09:18 44.70373 11.20964 14706 ft 406 kts 179°
2026-04-14 09:18 44.67671 11.21684 14175 ft 390 kts 155°
2026-04-14 09:18 44.66125 11.22988 13824 ft 381 kts 139°
2026-04-14 09:19 44.64096 11.26826 12992 ft 365 kts 114°
2026-04-14 09:19 44.63445 11.29032 12541 ft 359 kts 109°
2026-04-14 09:19 44.62666 11.32313 11901 ft 349 kts 108°
2026-04-14 09:19 44.61791 11.35436 11311 ft 337 kts 112°
2026-04-14 09:20 44.60889 11.38415 10737 ft 326 kts 113°
2026-04-14 09:20 44.59991 11.41283 10190 ft 316 kts 113°
2026-04-14 09:20 44.59106 11.44070 9609 ft 308 kts 113°
2026-04-14 09:20 44.58242 11.46780 9008 ft 301 kts 114°
2026-04-14 09:21 44.57346 11.49396 8417 ft 294 kts 116°
2026-04-14 09:21 44.56444 11.51896 7830 ft 289 kts 116°
2026-04-14 09:21 44.55534 11.54378 7265 ft 283 kts 116°
2026-04-14 09:21 44.54630 11.56849 6693 ft 279 kts 115°
2026-04-14 09:22 44.53773 11.59208 6200 ft 272 kts 115°
2026-04-14 09:22 44.52685 11.61317 5713 ft 266 kts 139°
2026-04-14 09:22 44.51080 11.62514 5233 ft 262 kts 166°
2026-04-14 09:22 44.49280 11.62571 4758 ft 259 kts 193°
2026-04-14 09:23 44.47629 11.61616 4269 ft 256 kts 207°
2026-04-14 09:23 44.46053 11.60491 3818 ft 251 kts 208°
2026-04-14 09:23 44.44672 11.59077 3428 ft 245 kts 233°
2026-04-14 09:23 44.44009 11.56976 3058 ft 232 kts 264°
2026-04-14 09:24 44.44182 11.54823 3012 ft 221 kts 292°
2026-04-14 09:24 44.44844 11.52894 3011 ft 220 kts 298°
2026-04-14 09:24 44.45536 11.51002 2999 ft 213 kts 298°
2026-04-14 09:24 44.46172 11.49253 3044 ft 190 kts 298°
2026-04-14 09:25 44.46754 11.47650 3009 ft 180 kts 298°
2026-04-14 09:25 44.47318 11.46093 2971 ft 179 kts 298°
2026-04-14 09:25 44.47866 11.44581 2786 ft 165 kts 300°
2026-04-14 09:25 44.48358 11.43220 2546 ft 150 kts 300°
2026-04-14 09:26 44.48812 11.41967 2337 ft 139 kts 300°
2026-04-14 09:26 44.49241 11.40781 2121 ft 135 kts 299°
2026-04-14 09:26 44.49664 11.39613 1905 ft 133 kts 300°
2026-04-14 09:26 44.50081 11.38462 1706 ft 132 kts 300°
2026-04-14 09:27 44.50495 11.37316 1491 ft 131 kts 300°
2026-04-14 09:27 44.50902 11.36190 1301 ft 129 kts 300°
2026-04-14 09:27 44.51308 11.35068 1101 ft 130 kts 298°
2026-04-14 09:27 44.51709 11.33954 897 ft 126 kts 297°
2026-04-14 09:28 44.52106 11.32855 696 ft 127 kts 297°
2026-04-14 09:28 44.52501 11.31762 485 ft 126 kts 297°
2026-04-14 09:28 44.52892 11.30678 305 ft 124 kts 297°
2026-04-14 09:28 44.53277 11.29608 139 ft 121 kts 297°
2026-04-14 09:29 44.53598 11.28715 134 ft 80 kts 296°
2026-04-14 09:29 44.53769 11.28237 133 ft 26 kts 289°
2026-04-14 09:29 44.53743 11.28064 132 ft 13 kts 227°
2026-04-14 09:29 44.53674 11.28032 128 ft 8 kts 171°
2026-04-14 09:30 44.53629 11.28075 129 ft 7 kts 131°
2026-04-14 09:30 44.53614 11.28125 128 ft 4 kts 113°
2026-04-14 09:30 44.53603 11.28157 128 ft 3 kts 116°
2026-04-14 09:30 44.53588 11.28198 129 ft 8 kts 116°
2026-04-14 09:31 44.53554 11.28293 128 ft 15 kts 116°
2026-04-14 09:31 44.53490 11.28471 125 ft 23 kts 117°
2026-04-14 09:31 44.53415 11.28679 124 ft 26 kts 116°
2026-04-14 09:31 44.53331 11.28910 132 ft 26 kts 116°
2026-04-14 09:32 44.53254 11.29123 135 ft 23 kts 117°
2026-04-14 09:32 44.53191 11.29303 136 ft 19 kts 116°
2026-04-14 09:32 44.53094 11.29279 134 ft 8 kts 204°
2026-04-14 09:33 44.53081 11.29271 134 ft 0 kts 206°